weather.gov     
National Weather Service

Regional Weather Roundup
NWS Homepage
This page is being discontinued on March 12, 2014.
The same data is available at this site. Please update your bookmarks.
Thank you, and we apologize for the inconvenience.
Please send an email to SR-SRH.Webmaster@noaa.gov with any concerns.


Current Version
Previous Version:    01  02  03  04  05  06  07  08  09  10  11  12  13  14  15  16  17  18  19  20  21  22  23  24  25  26  27  28  29  30  
   31  32  33  34  35  36  37  38  39  40  41  42  43  44  45  46  47  48  49  50  51  52  53  
[Printable]
130
ASUS44 KJAN 250010
RWRMS

MISSISSIPPI HOURLY WEATHER ROUNDUP
NATIONAL WEATHER SERVICE JACKSON MS
700 PM CDT THU APR 24 2014

NOTE: "FAIR: INDICATES FEW OR NO CLOUDS BELOW 12,000 FEET WITH NO
SIGNIFICANT WEATHER AND/OR OBSTRUCTIONS TO VISIBILITY.

MSZ001>002-007>008-010>013-018>021-025>028-034>036-250100-
NORTHWEST MISSISSIPPI

CITY           SKY/WX    TMP DP  RH WIND       PRES   REMARKS
CLARKSDALE       N/A     70  64  83 SW14      29.72R
CLEVELAND      TSTM      69  67  95 SW13G18   29.76R
GREENWOOD      CLOUDY    77  58  51 SE10      29.72F
6HR MIN TEMP:  76; 6HR MAX TEMP:  84;

GREENVILLE     TSTM      70  66  88 NW3       29.77R FOG
6HR MIN TEMP:  68; 6HR MAX TEMP:  83; 6HR PCP:  1.37;

GRENADA        MOCLDY    70  61  73 SE9       29.75F THUNDER
OLIVE BRANCH   TSTM      70  64  83 E7        29.71F
OXFORD         LGT RAIN  64  61  88 SE7       29.70F
TUNICA         TSTM      72  61  68 SW16G22   29.70F
$$

MSZ003>006-009-014>017-022>024-029>033-037>039-250100-
NORTHEAST MISSISSIPPI

CITY           SKY/WX    TMP DP  RH WIND       PRES   REMARKS
BELMONT        MOCLDY    77  56  49 SW5       29.81S
COLUMBUS AFB   CLEAR     78  56  46 S5        29.80S
6HR MIN TEMP:  78; 6HR MAX TEMP:  84;

CORINTH        FAIR      75  54  46 S8        29.79S
GOLDN TRIANGLE PTCLDY    77  55  47 SW9       29.83S
STARKVILLE     FAIR      77  55  47 S3        29.81S
TUPELO         PTCLDY    78  54  43 SW9       29.79S
6HR MIN TEMP:  78; 6HR MAX TEMP:  84;

$$

MSZ040-058-250100-
CENTRAL MISSISSIPPI

CITY           SKY/WX    TMP DP  RH WIND       PRES   REMARKS
JACKSON INTL   MOCLDY    79  61  53 S14       29.77F
6HR MIN TEMP:  79; 6HR MAX TEMP:  84;

JACKSON HAWKNS PTCLDY    79  60  52 S9G20     29.77F
6HR MIN TEMP:  79; 6HR MAX TEMP:  84;

MERIDIAN KEY   CLEAR     76  57  51 S7        29.83S
6HR MIN TEMP:  76; 6HR MAX TEMP:  84;

MERIDIAN NAS   MOCLDY    77  58  51 S5        29.83S
6HR MIN TEMP:  77; 6HR MAX TEMP:  84;

RAYMOND        FAIR      77  73  88 S13G23    29.77F
VICKSBURG      CLOUDY    80  64  58 S9G20     29.78R
6HR MIN TEMP:  80; 6HR MAX TEMP:  84;

$$

MSZ059>079-250100-
SOUTH MISSISSIPPI

CITY           SKY/WX    TMP DP  RH WIND       PRES   REMARKS
BROOKHAVEN     FAIR      79  64  61 S6        29.85F
HATTIESBURG    PTCLDY    78  63  59 S7        29.87R
6HR MIN TEMP:  78; 6HR MAX TEMP:  85;

MCCOMB         PTCLDY    77  64  64 S8        29.85F
6HR MIN TEMP:  77; 6HR MAX TEMP:  82;

NATCHEZ        CLOUDY    77  64  65 S12G17    29.82S
6HR MIN TEMP:  77; 6HR MAX TEMP:  81;

PINE BELT      PTCLDY    77  59  53 S8        29.88R
6HR MIN TEMP:  77; 6HR MAX TEMP:  84;

$$

MSZ080>082-250100-
COASTAL MISSISSIPPI

CITY           SKY/WX    TMP DP  RH WIND       PRES   REMARKS
BILOXI         PTCLDY    73  66  79 S12       29.88F
6HR MIN TEMP:  73; 6HR MAX TEMP:  78;

PASCAGOULA     PTCLDY    72  64  76 S10       29.89F
6HR MIN TEMP:  72; 6HR MAX TEMP:  79;

GULFPORT       PTCLDY    75  65  70 S9        29.88F
6HR MIN TEMP:  75; 6HR MAX TEMP:  79;

$$




U.S. Dept. of Commerce
NOAA National Weather Service
1325 East West Highway
Silver Spring, MD 20910
E-mail: w-nws.webmaster@noaa.gov
Page last modified: May 16, 2007
NATIONAL WEATHER SERVICE: for Safety, for Work, for Fun - FOR LIFE